Volver al catálogo

STARLINK-5960

ActivoComunicacionesVLEO
NORAD 56920·PAYLOAD·🇺🇸 United States

Lanzado Jun 12, 2023 desde Cape Canaveral Space Force Station

Loading…

Próximos Pases (próximas 24 horas)

TLE

ActualizadoSource: CelesTrak SupGP

Época: Sep 14, 2026, 20:37 UTC

1 56920C 23083AW  26257.85951389  .00011432  00000+0  41417-3 0  2575
2 56920  43.0015  82.2349 0001057 254.5517 350.5383 15.27564843    10

Sigue STARLINK-5960 en tiempo real con AllMySat

Download on the App Store